Vertical_Velocity
-2 -0 -1 -1 -1 -3 -2 -1 -1 -1 -3 -2 -1 -1 -0 -2 -2 -0 -5 -2 4 1 -2 0 -1 -0 0 1 -3 -1 9 9 4 -9 11 5 2 7 -3 3 5 7 -4 4 -2 -2 2
-1 -2 -1 -2 -1 -2 -2 -1 -1 -2 -3 -2 -1 -1 -1 -1 -2 -2 -6 -2 2 1 1 -1 0 -1 -1 -0 -2 4 -4 11 15 15 8 4 -2 5 -11 2 4 5 1 2 -4 -1 2
-1 -0 -2 -2 -2 -1 -3 -1 -0 -1 -2 -0 0 -1 -2 -2 -0 -2 -2 -1 -2 2 2 -1 1 -5 -2 -1 1 5 -1 -5 1 -9 1 7 2 2 -7 2 5 4 -1 4 -0 2 -1
1 -0 -3 -3 -1 -1 -2 -3 0 -2 -2 -2 1 -1 -1 -2 -1 -3 -3 2 3 -0 1 1 2 -2 -12 -1 0 6 -4 -7 5 -7 -1 -2 2 -4 -4 4 7 4 7 -1 1 0 -0
1 -1 -1 -2 -1 -0 -3 -3 -1 -1 -3 -5 -0 -1 -2 -5 -3 -3 2 0 -2 -2 -5 -3 2 -4 -6 3 -1 0 -3 -5 4 -4 6 1 5 -6 2 5 4 3 -3 1 -0 -2 -1
1 -1 -1 -2 -1 -0 -2 -2 -2 0 -1 -3 -2 -0 -3 -4 -0 -1 -3 -2 7 1 -1 0 6 -5 5 0 1 1 -10 -2 1 14 7 -1 3 -7 0 3 -12 -6 -5 2 -5 -2 1
1 0 -1 0 0 0 -2 -2 -1 -1 -1 -1 -1 -0 -3 -4 0 -3 -0 -10 -6 6 -3 -7 7 -8 1 2 6 3 5 -0 9 -11 6 3 5 -4 2 7 3 0 -3 -3 -1 -1 2
-0 -0 -1 -0 -0 0 -1 -1 -1 0 0 2 -1 -1 -0 -1 -2 -2 1 -8 -4 2 -0 3 1 -1 -1 1 -0 3 -1 0 -8 4 -4 4 -1 -2 6 7 12 8 2 1 -0 0 2
0 -1 0 0 -0 -1 -2 0 -1 -1 1 1 0 -1 1 -2 1 0 1 1 -0 -0 -7 0 -5 11 -10 24 -5 -1 -6 -1 3 5 1 -6 -7 -6 4 4 10 1 2 -1 -2 -1 -1
-0 -1 -0 -0 0 -2 -1 -2 0 -0 0 2 2 1 -0 2 -1 -1 -1 -2 -0 -3 -0 3 -4 10 5 -19 -3 7 7 -3 -1 -3 0 -4 -3 -6 2 3 0 -0 0 -1 -1 -0 -1
-2 -1 -1 -0 0 -1 -0 -2 -2 -0 -0 -2 1 -0 -0 1 -1 -0 -0 -0 -1 -0 -10 -0 1 -2 7 -0 -2 -4 3 -0 -2 1 2 -6 -3 -2 6 2 -1 -4 0 -2 -0 -1 -2
-2 -2 -0 -0 0 -0 0 0 -0 -1 -1 -1 -1 1 -1 -1 -2 -3 -2 -0 -2 -0 -6 -2 0 3 2 1 1 -0 1 6 5 0 -5 -4 -2 6 4 -0 -0 -1 1 -1 0 -2 -2
-1 -2 -1 -0 0 0 1 -0 1 -1 -0 0 -1 3 0 -1 1 1 -1 -2 -2 -10 -1 -0 -3 0 -1 1 0 4 1 1 1 -1 -2 1 1 1 2 4 4 2 1 -2 -5 -3 -4
-1 -1 -2 -1 -0 -0 -0 1 -1 -0 1 -2 0 1 -0 0 -3 -2 2 -5 -10 0 0 -0 -1 -3 -4 -4 -1 -2 2 2 4 -2 -5 -1 -1 1 1 2 -0 -1 -1 -1 -4 -2 -3
-1 -2 -1 -2 -1 -1 -1 -2 1 1 -2 0 -1 -0 1 1 -2 -2 -3 -2 -3 -1 1 3 1 1 -2 -1 -3 -3 -2 -4 -3 -1 -0 -0 -0 0 -1 1 0 -1 -1 -1 -3 -1 -1
0 -2 -1 -1 -1 -1 0 -1 -1 2 -1 -0 1 1 -1 -2 2 0 1 -11 -4 -2 -3 -1 1 -1 2 3 1 0 0 -1 -1 -2 -1 -1 0 0 1 0 -0 1 0 -3 -1 -3 -2
-2 0 -2 1 -1 -1 -0 -1 -1 -3 1 -2 1 -1 -1 2 -1 -5 -5 -1 4 0 1 -3 -2 0 2 -3 -2 -1 -0 0 0 -0 -1 -2 -2 -2 0 0 -0 -1 -1 -2 -0 0 -3
-2 -0 -2 -1 -3 -2 -2 -0 -1 -2 -3 1 1 -6 -1 -0 -1 -4 -3 -2 -4 -0 2 1 1 -3 -3 -1 4 2 -2 -2 -1 2 -1 -3 -3 -0 0 0 1 0 -0 -0 -1 -2 -1
-0 -1 -2 2 -4 -2 -3 -3 -4 -2 -1 -4 -4 1 -0 -3 -2 -1 -2 -4 -0 -3 -4 -1 -3 2 0 -2 -1 -1 1 2 1 1 1 3 0 -2 -1 -4 -4 -4 -2 -1 0 2 -2
-2 -1 1 -1 -0 -3 -2 -4 -1 -4 -1 -2 -1 -0 0 -0 0 -1 -1 0 0 1 -2 -2 -2 -4 4 -2 -7 -4 -2 -1 0 0 -1 -1 2 3 -3 2 2 -3 -5 -4 -5 -5 -6
-2 -1 -1 0 1 -1 -2 -4 -4 -5 1 -1 -4 -4 0 -3 -0 -1 -2 1 5 3 3 -0 4 0 -4 -1 0 -0 -4 -3 -4 -2 -0 -1 -2 0 3 2 -1 1 6 6 -3 11 -5
-2 -3 -0 0 0 -2 -1 -1 -4 -4 -6 -1 -4 -1 -2 -4 -0 -5 -2 0 -2 -1 -3 1 1 3 -0 -1 1 0 3 4 1 -1 -5 -6 -6 -6 -5 -4 -2 -9 2 2 2 5 -9
-2 -3 -3 -3 1 -1 -1 -2 -1 -2 -2 -5 1 -3 -3 -3 1 1 -1 -1 1 2 -1 -2 -3 -5 -2 2 -1 -2 -2 1 -1 -2 3 4 6 2 -6 -2 -2 -13 -9 -6 -6 -6 3
-2 -2 -1 -4 -1 -1 -0 -2 -0 -1 -3 1 -4 -3 -1 0 -6 -4 -1 -1 -6 -12 -3 5 6 3 -1 -1 -1 -2 -0 0 0 1 0 -3 1 1 -3 4 -4 3 5 6 3 4 0
-1 -0 -2 -4 -3 -1 0 -1 -3 -1 1 -3 -6 -1 -2 -2 3 1 -1 -0 0 3 4 -5 -9 -7 -1 3 -1 -5 -5 -3 -2 -5 0 5 6 -3 -2 -1 -7 -11 -3 3 1 -7 1
1 0 -1 -0 -6 -3 -3 0 -2 -3 -1 -2 1 -1 -3 -2 -5 1 -1 1 -1 -0 -3 1 2 4 2 -6 -2 4 -4 -5 -1 -0 1 1 1 2 2 2 -1 -0 -1 -2 0 -20 -2
5 2 1 -1 -2 -2 -3 -2 -2 -3 -3 -2 -2 -0 -1 1 2 -3 -0 2 2 2 -2 1 -2 0 5 -2 -1 -1 -4 0 -0 1 -2 -3 -1 -6 5 -1 -4 -16 7 2 2 -5 -4
1 2 0 1 -0 -2 -1 -0 -0 -1 -2 1 -1 -5 -7 -6 -2 2 -0 -1 -2 2 3 2 4 -11 2 2 0 -3 -1 -2 -4 1 1 5 4 -3 7 0 -14 -4 -4 -2 3 4 3
-1 -1 2 -0 2 -1 0 -2 3 3 1 -0 -1 -1 0 -1 -6 1 1 1 -4 4 1 -0 -2 6 -2 -7 -1 3 -1 3 -1 -6 -6 -7 -4 4 -2 -4 7 7 10 4 1 2 2
Height
3142 3138 3133 3129 3123 3119 3114 3109 3105 3101 3096 3092 3087 3083 3078 3074 3070 3065 3060 3056 3052 3048 3046 3046 3046 3048 3050 3051 3053 3054 3057 3059 3062 3066 3071 3078 3082 3090 3097 3104 3109 3115 3119 3126 3132 3137 3142
3144 3139 3134 3130 3125 3121 3115 3110 3106 3102 3098 3093 3089 3085 3080 3076 3072 3067 3062 3057 3053 3048 3046 3047 3048 3048 3051 3053 3053 3056 3059 3061 3065 3067 3072 3080 3086 3093 3101 3106 3112 3116 3121 3125 3131 3137 3142
3146 3141 3137 3132 3127 3122 3117 3112 3107 3103 3100 3096 3092 3088 3082 3078 3075 3070 3065 3061 3057 3052 3049 3049 3049 3051 3053 3056 3056 3059 3062 3064 3065 3067 3073 3081 3088 3095 3103 3109 3113 3116 3122 3125 3132 3137 3141
3148 3143 3139 3134 3129 3124 3119 3113 3108 3105 3102 3098 3095 3091 3086 3081 3077 3073 3069 3065 3062 3056 3054 3054 3055 3056 3057 3058 3061 3063 3063 3063 3067 3073 3077 3085 3091 3099 3105 3109 3113 3116 3122 3124 3131 3135 3140
3150 3145 3140 3136 3132 3126 3121 3116 3111 3107 3104 3101 3097 3094 3089 3084 3081 3077 3074 3070 3066 3061 3060 3059 3061 3061 3062 3064 3066 3067 3066 3069 3073 3078 3084 3088 3095 3102 3108 3110 3113 3115 3118 3124 3131 3135 3139
3151 3147 3143 3139 3134 3129 3124 3119 3114 3109 3105 3102 3100 3097 3093 3088 3085 3083 3079 3077 3072 3065 3066 3067 3067 3069 3070 3071 3071 3072 3074 3076 3080 3084 3089 3093 3099 3104 3110 3111 3112 3114 3118 3124 3130 3136 3139
3152 3149 3145 3141 3136 3132 3127 3122 3117 3112 3107 3104 3102 3100 3097 3094 3090 3088 3086 3083 3081 3078 3073 3072 3075 3074 3076 3076 3075 3077 3079 3081 3085 3085 3092 3097 3101 3106 3111 3113 3115 3117 3120 3125 3131 3134 3138
3153 3150 3146 3143 3138 3134 3130 3124 3119 3115 3110 3105 3103 3101 3099 3097 3095 3093 3093 3089 3085 3087 3082 3081 3082 3081 3080 3081 3082 3085 3087 3090 3091 3094 3098 3101 3103 3109 3113 3113 3116 3119 3122 3127 3131 3134 3137
3153 3150 3148 3144 3140 3135 3132 3127 3122 3117 3112 3108 3103 3100 3099 3098 3096 3095 3094 3093 3091 3091 3089 3090 3087 3087 3084 3088 3088 3090 3094 3094 3097 3099 3101 3104 3109 3112 3113 3115 3118 3120 3123 3126 3131 3133 3135
3153 3151 3148 3145 3141 3137 3132 3128 3124 3119 3115 3110 3105 3101 3097 3096 3097 3095 3095 3094 3093 3093 3093 3096 3095 3096 3093 3093 3095 3095 3097 3100 3100 3103 3105 3107 3112 3115 3115 3117 3119 3121 3124 3127 3130 3132 3134
3153 3151 3148 3145 3142 3138 3134 3130 3126 3122 3117 3112 3108 3103 3099 3095 3095 3094 3095 3094 3094 3094 3098 3102 3100 3100 3099 3100 3101 3100 3101 3103 3105 3105 3108 3114 3115 3116 3117 3117 3120 3123 3125 3128 3130 3131 3133
3154 3151 3149 3146 3142 3139 3135 3132 3127 3123 3119 3114 3109 3105 3101 3098 3095 3095 3095 3094 3095 3098 3103 3106 3104 3103 3103 3103 3102 3103 3104 3107 3108 3109 3111 3115 3117 3116 3115 3118 3122 3124 3126 3128 3129 3131 3132
3153 3151 3149 3146 3143 3139 3136 3133 3129 3125 3121 3116 3112 3107 3103 3100 3098 3096 3096 3096 3097 3098 3108 3109 3107 3106 3105 3106 3106 3107 3108 3110 3110 3113 3115 3117 3117 3116 3118 3122 3123 3124 3125 3128 3133 3134 3132
3151 3150 3149 3146 3144 3140 3137 3133 3130 3126 3123 3119 3114 3110 3106 3103 3101 3098 3097 3098 3098 3104 3105 3108 3108 3108 3109 3109 3110 3110 3111 3111 3112 3113 3117 3118 3121 3119 3119 3121 3122 3124 3126 3126 3134 3135 3131
3150 3149 3147 3145 3143 3140 3137 3134 3130 3127 3124 3121 3118 3114 3110 3106 3103 3102 3101 3099 3104 3106 3108 3108 3109 3109 3109 3110 3112 3112 3112 3113 3115 3116 3119 3119 3119 3119 3120 3121 3124 3124 3125 3128 3129 3132 3132
3148 3146 3145 3144 3142 3140 3137 3134 3131 3127 3125 3122 3120 3117 3113 3110 3107 3106 3105 3102 3106 3108 3109 3109 3109 3110 3111 3112 3113 3113 3115 3116 3117 3118 3118 3119 3119 3120 3120 3122 3123 3124 3126 3128 3128 3132 3132
3145 3144 3143 3142 3141 3139 3137 3134 3131 3128 3126 3123 3121 3119 3116 3113 3112 3110 3108 3108 3109 3111 3111 3112 3111 3111 3111 3112 3113 3114 3116 3117 3117 3118 3118 3119 3121 3123 3123 3122 3122 3124 3125 3127 3128 3127 3127
3142 3142 3141 3140 3139 3138 3136 3135 3131 3129 3127 3125 3122 3121 3119 3117 3117 3113 3112 3112 3112 3112 3113 3113 3113 3113 3113 3113 3113 3114 3115 3117 3117 3118 3119 3119 3119 3120 3121 3121 3122 3123 3123 3125 3126 3127 3126
3139 3139 3138 3138 3137 3136 3134 3133 3132 3129 3126 3125 3123 3122 3121 3119 3118 3115 3115 3115 3114 3114 3114 3115 3115 3115 3115 3115 3116 3115 3116 3116 3116 3117 3118 3118 3118 3118 3118 3121 3120 3120 3121 3122 3123 3124 3121
3135 3136 3135 3135 3134 3133 3132 3130 3130 3129 3127 3126 3124 3122 3122 3120 3119 3119 3118 3117 3116 3115 3115 3114 3115 3115 3116 3115 3115 3116 3116 3116 3116 3116 3116 3116 3116 3117 3116 3116 3116 3115 3116 3116 3117 3117 3113
3132 3132 3132 3131 3130 3130 3130 3129 3128 3128 3126 3126 3124 3123 3122 3122 3121 3120 3120 3120 3119 3118 3117 3116 3115 3115 3116 3115 3114 3113 3114 3115 3115 3114 3115 3115 3114 3114 3115 3114 3112 3111 3111 3111 3107 3107 3105
3126 3126 3127 3127 3126 3126 3125 3126 3126 3126 3126 3125 3124 3123 3122 3122 3122 3121 3120 3119 3118 3118 3118 3117 3116 3115 3114 3114 3115 3114 3114 3113 3113 3112 3112 3112 3111 3110 3110 3110 3108 3105 3105 3104 3102 3100 3095
3119 3120 3120 3122 3122 3122 3122 3121 3122 3122 3123 3123 3122 3121 3121 3120 3120 3120 3121 3120 3120 3118 3117 3115 3114 3114 3114 3113 3113 3112 3112 3110 3110 3110 3110 3109 3107 3105 3101 3101 3100 3098 3094 3094 3093 3092 3091
3111 3113 3114 3114 3116 3116 3118 3117 3118 3119 3119 3119 3119 3119 3119 3118 3118 3119 3118 3117 3117 3117 3116 3115 3114 3112 3113 3111 3110 3109 3107 3106 3106 3106 3105 3104 3106 3107 3102 3099 3097 3086 3085 3084 3081 3082 3081
3103 3104 3106 3108 3109 3110 3110 3112 3112 3113 3114 3114 3114 3115 3115 3114 3115 3114 3114 3114 3114 3113 3113 3112 3112 3112 3109 3108 3107 3105 3103 3101 3099 3099 3099 3099 3101 3102 3101 3096 3086 3087 3084 3081 3078 3079 3079
3094 3095 3098 3100 3102 3104 3104 3105 3106 3107 3108 3108 3109 3109 3109 3111 3110 3110 3110 3110 3110 3109 3109 3109 3108 3107 3105 3103 3105 3102 3098 3097 3096 3094 3094 3094 3096 3099 3097 3095 3087 3081 3081 3080 3076 3071 3072
3085 3087 3088 3090 3093 3095 3097 3098 3099 3100 3101 3103 3103 3103 3104 3104 3104 3104 3104 3104 3103 3103 3103 3103 3103 3103 3100 3098 3098 3099 3097 3097 3091 3087 3087 3089 3089 3089 3091 3089 3078 3080 3077 3074 3076 3074 3069
3076 3078 3080 3081 3083 3086 3088 3090 3092 3093 3093 3095 3096 3096 3097 3097 3098 3097 3097 3097 3096 3096 3097 3096 3096 3095 3096 3094 3090 3089 3087 3087 3088 3086 3086 3086 3084 3080 3081 3082 3076 3073 3073 3074 3071 3067 3065
3065 3069 3071 3072 3074 3076 3079 3082 3084 3085 3085 3086 3087 3086 3086 3088 3090 3090 3090 3089 3089 3090 3090 3088 3092 3089 3088 3090 3089 3085 3083 3079 3078 3079 3082 3081 3080 3079 3078 3072 3070 3068 3066 3065 3063 3061 3060